Location: ????? ??????
(37.8317°N, 23.8750°E)
Time: 12:04:30
(UTC+00:00)

H-2A R/B - Pass Details

Date: 20 January 2021
Orbit: 734 x 836 km, 98.2° (Epoch: 03 March)

Event Time Altitude Azimuth Distance (km) Brightness Sun altitude
Rises 18:07:14 0° 195° (SSW) 3,155 5.4 -29.9°
Reaches altitude 10° 18:09:48 10° 207° (SSW) 2,245 4.7 -30.4°
Maximum altitude 18:13:57 27° 265° (W) 1,419 3.9 -31.2°
Drops below altitude 10° 18:18:12 10° 322° (NW) 2,299 4.8 -32.0°
Sets 18:20:53 0° 335° (NNW) 3,247 5.5 -32.6°
